Weather History for Kars, Turkey

Change the Weather History Date:

Tuesday, October 9, 2012

  Actual Average Record
Temperature  
Mean Temperature 52 °F -  
Max Temperature 63 °F 52 °F - ()
Min Temperature 41 °F 30 °F - ()
Degree Days  
Heating Degree Days 13    
Growing Degree Days 2 (Base 50)    
Moisture  
Dew Point 43 °F    
Average Humidity 78    
Maximum Humidity 100    
Minimum Humidity 36    
Precipitation  
Precipitation 0.02 in 0.05 in - ()
Sea Level Pressure  
Sea Level Pressure 30.03 in    
Wind  
Wind Speed 6 mph ()    
Max Wind Speed 14 mph    
Max Gust Speed 28 mph    
Visibility 6.2 miles    
Events Rain , Thunderstorm    
T = Trace of Precipitation, MM = Missing Value Source: Averaged Metar Reports

Daily Weather History Graph

Daily Weather History Graph

Search for Another Location

Airport:

Trip Planner

Search our weather history database for the weather conditions in past years. The results will help you decide how hot, cold, wet, or windy it might be!

Date:

Astronomy

Oct. 09, 2012 Rise Set
Actual Time 6:12 AM EEST 5:36 PM EEST
Civil Twilight 5:45 AM EEST 6:03 PM EEST
Nautical Twilight 5:13 AM EEST 6:35 PM EEST
Astronomical Twilight 4:41 AM EEST 7:07 PM EEST
Moon No Moon Rise 1:51 PM EEST (10/9)
Length of Visible Light 12h 18m
Length of Day
11h 24m
Last Quarter, 40% of the Moon is Illuminated
Oct 9
Last Quarter
Oct 15
New
Oct 22
First Quarter
Oct 29
Full
Nov 7
Last Quarter

Hourly Weather History & Observations

Time (EEST) Temp. Windchill Dew Point Humidity Pressure Visibility Wind Dir Wind Speed Gust Speed Precip Events Conditions
12:50 AM 48.2 °F - 44.6 °F 87% 30.04 in 6.2 mi Variable 2.3 mph - N/A   Mostly Cloudy
1:50 AM 46.4 °F 42.9 °F 46.4 °F 100% 30.04 in 6.2 mi East 6.9 mph - N/A   Mostly Cloudy
3:50 AM 44.6 °F - 44.6 °F 100% 30.01 in 6.2 mi SW 1.2 mph - N/A   Mostly Cloudy
4:50 AM 44.6 °F 42.2 °F 42.8 °F 93% 30.01 in 6.2 mi South 4.6 mph - N/A   Mostly Cloudy
5:50 AM 42.8 °F - 42.8 °F 100% 30.01 in 6.2 mi NNE 2.3 mph - N/A   Mostly Cloudy
6:50 AM 42.8 °F - 42.8 °F 100% 30.01 in 6.2 mi SSW 1.2 mph - N/A   Scattered Clouds
7:50 AM 46.4 °F - 46.4 °F 100% 30.01 in 6.2 mi WNW 2.3 mph - N/A   Mostly Cloudy
8:50 AM 50.0 °F - 46.4 °F 87% 30.01 in - WSW 6.9 mph - N/A   Clear
9:00 AM 50 °F - 46 °F 83%  in 6 mi WSW 6.9 mph - -   Partly Cloudy
10:50 AM 57.2 °F - 41.0 °F 55% 30.01 in 6.2 mi WSW 10.4 mph - N/A   Mostly Cloudy
11:50 AM 59.0 °F - 39.2 °F 48% 30.01 in 6.2 mi West 10.4 mph - N/A   Mostly Cloudy
12:50 PM 59.0 °F - 37.4 °F 45% 30.01 in 6.2 mi SSW 6.9 mph - N/A   Scattered Clouds
1:50 PM 59.0 °F - 35.6 °F 42% 30.01 in 6.2 mi WNW 12.7 mph 27.6 mph N/A Rain , Thunderstorm Light Thunderstorms and Rain
2:50 PM 60.8 °F - 41.0 °F 48% 29.98 in 6.2 mi ENE 10.4 mph - N/A   Scattered Clouds
3:00 PM 61 °F - 41 °F 36%  in 6 mi ENE 10.4 mph - - Thunderstorm Light Thunderstorm
3:50 PM 59.0 °F - 41.0 °F 51% 30.01 in 6.2 mi ENE 12.7 mph - N/A   Mostly Cloudy
4:50 PM 51.8 °F - 44.6 °F 76% 30.04 in 6.2 mi ENE 13.8 mph - N/A   Mostly Cloudy
5:50 PM 50.0 °F - 44.6 °F 82% 30.04 in 6.2 mi NNE 11.5 mph - N/A Rain , Thunderstorm Light Thunderstorms and Rain
6:50 PM 46.4 °F 41.9 °F 44.6 °F 93% 30.06 in 6.2 mi East 9.2 mph - N/A   Mostly Cloudy
7:50 PM 46.4 °F 41.9 °F 42.8 °F 87% 30.06 in 6.2 mi East 9.2 mph - N/A   Mostly Cloudy
8:50 PM 46.4 °F 42.4 °F 41.0 °F 81% 30.09 in 6.2 mi ENE 8.1 mph - N/A   Mostly Cloudy
9:00 PM 47 °F - 42 °F 75%  in 6 mi ENE 8.1 mph - -   Partly Cloudy
9:50 PM 46.4 °F 42.4 °F 42.8 °F 87% 30.09 in 6.2 mi NE 8.1 mph - N/A   Mostly Cloudy
10:50 PM 44.6 °F - 42.8 °F 93% 30.09 in 6.2 mi Variable 2.3 mph - N/A   Mostly Cloudy
11:50 PM 42.8 °F 40.1 °F 41.0 °F 93% 30.09 in 6.2 mi NNW 4.6 mph - N/A   Mostly Cloudy